[[{"header":{"parameterUnit":"m.s-1","parameterCategory":1,"la1":30.2991,"la2":30.254,"lo1":-89.0895,"lo2":-89.0444,"dy":0.0017,"dx":0.0017,"nx":28,"ny":28,"refTime":"2024-03-11T03:00:00:Z","depth":0,"parameterNumber":2,"parameterNumberName":"U-component_of_WINDS"},"data":[0,0,0,0,0,0,0,0,0,0,0,0,0,0,0,0,0,0,0,0,0,0,0,0,0,0,0,0,0,0,0,0,0,0,0,0,0,0,0,0,0,0,0,0,0,0,0,0,0,0,0,0,0,0,0,0,0,0,-1.6181,-1.6181,0,-1.6209,-1.621,-1.621,-1.6159,-1.6158,-1.6156,-1.6154,-1.6185,-1.6187,-1.6189,0,0,0,0,0,0,0,0,0,0,0,0,0,-1.6085,-1.6087,-1.6181,-1.6181,-1.6182,-1.6209,-1.621,-1.621,-1.616,-1.6158,-1.6156,-1.6154,-1.6184,-1.6187,-1.619,0,0,0,0,0,0,0,0,0,0,0,0,0,-1.6121,-1.6087,-1.6181,-1.616,-1.6158,-1.6209,-1.621,-1.621,-1.616,-1.6158,-1.6155,-1.6153,-1.6183,-1.6186,-1.619,-1.6263,0,0,-1.6201,-1.6203,0,0,0,0,0,0,0,0,-1.6119,-1.6125,-1.6163,-1.6161,-1.616,-1.6178,-1.6187,-1.6228,-1.6161,-1.6159,-1.6154,-1.6151,-1.6185,-1.6188,-1.6199,-1.6265,-1.6266,-1.6201,-1.6204,-1.6205,-1.6206,0,0,0,0,0,0,0,-1.6117,-1.6123,-1.6192,-1.6163,-1.6161,-1.615,-1.6152,-1.6194,-1.6186,-1.6159,-1.6156,-1.616,-1.6183,-1.6196,-1.6199,-1.6266,-1.6201,-1.6204,-1.6207,-1.6208,-1.6394,-1.6397,0,0,0,0,0,0,-1.6117,-1.6122,-1.6191,-1.6193,-1.6133,-1.6153,-1.6156,-1.6175,-1.6185,-1.6185,-1.6162,-1.6157,-1.6191,-1.6195,-1.62,-1.6287,-1.6205,-1.6208,-1.621,-1.6391,-1.6395,-1.6398,0,0,0,0,0,0,-1.6115,-1.6123,-1.619,-1.6156,-1.6164,-1.6158,-1.6179,-1.6177,-1.6189,-1.6187,-1.6186,-1.6176,-1.6189,-1.6195,-1.6248,-1.6287,-1.621,-1.6213,-1.6388,-1.6393,-1.6396,-1.646,0,0,0,0,0,0,-1.6112,-1.6123,-1.615,-1.6157,-1.6166,-1.6237,-1.6182,-1.6179,-1.6195,-1.6189,-1.62,-1.6199,-1.6187,-1.6243,-1.6252,-1.629,-1.6216,-1.6385,-1.639,-1.6395,-1.6455,-1.6466,-1.6476,0,0,0,0,0,-1.6109,-1.6167,-1.6152,-1.6161,-1.62,-1.6239,-1.6244,-1.6229,-1.6198,-1.6226,-1.6225,-1.6199,-1.6282,-1.6249,-1.6258,-1.6299,-1.6382,-1.6389,-1.6395,-1.645,-1.6464,-1.6476,0,0,0,0,0,0,-1.6165,-1.6168,-1.6151,-1.6213,-1.6226,-1.6231,-1.6265,-1.6244,-1.6267,-1.6261,-1.6241,-1.6244,-1.6301,-1.6305,-1.6269,-1.637,-1.6327,-1.6335,-1.6365,-1.6379,-1.6389,-1.6387,-1.6219,0,0,0,0,0,-1.6185,-1.6216,-1.6217,-1.6272,-1.6279,-1.6271,-1.6288,-1.6275,-1.6288,-1.6294,-1.6297,-1.6311,-1.634,-1.636,-1.6387,-1.6455,-1.6457,-1.6488,-1.6499,-1.6507,-1.6515,-1.6552,-1.6565,-1.6419,-1.6418,-1.6418,0,0,-1.6226,-1.6231,-1.6252,-1.6283,-1.6292,-1.6326,-1.6276,-1.6314,-1.6339,-1.63,-1.6349,-1.6353,-1.6367,-1.6428,-1.6456,-1.6434,-1.6556,-1.6515,-1.6522,-1.6525,-1.656,-1.6573,-1.6586,-1.6423,-1.6422,-1.6421,0,0,-1.6317,-1.6324,-1.6371,-1.6381,-1.6395,-1.6389,-1.64,-1.6408,-1.6409,-1.6458,-1.643,-1.646,-1.651,-1.6522,-1.6534,-1.6632,-1.6608,-1.6641,-1.6696,-1.6733,-1.6744,-1.6754,-1.6789,-1.6801,-1.6648,-1.6649,-1.6649,0,-1.6366,-1.6415,-1.6397,-1.6437,-1.6452,-1.6418,-1.6465,-1.6476,-1.6498,-1.651,-1.6485,-1.6548,-1.6555,-1.6619,-1.6643,-1.6654,-1.6667,-1.6639,-1.6744,-1.6754,-1.6763,-1.6796,-1.6809,-1.6652,-1.6652,-1.6652,-1.6651,0,-1.6474,-1.6509,-1.6545,-1.6567,-1.6586,-1.6629,-1.6619,-1.664,-1.6626,-1.6624,-1.6675,-1.6683,-1.6711,-1.6725,-1.6712,-1.6788,-1.6773,-1.6747,-1.6702,-1.6781,-1.6812,-1.6824,-1.6658,-1.6656,-1.6655,-1.6654,0,0,-1.6601,-1.6613,-1.6627,-1.6636,-1.665,-1.6676,-1.6719,-1.6746,-1.6764,-1.6781,-1.6816,-1.6861,-1.6836,-1.685,-1.6838,-1.687,-1.6947,-1.684,-1.684,-1.6859,-1.7031,-1.705,-1.7065,-1.6932,-1.6934,-1.6936,-1.7029,0,-1.6692,-1.6763,-1.6749,-1.682,-1.6852,-1.6821,-1.6857,-1.687,-1.6869,-1.6896,-1.6895,-1.6927,-1.6892,-1.6901,-1.6931,-1.6931,-1.6981,-1.6924,-1.6965,-1.6966,-1.6961,-1.7081,-1.7102,-1.7189,-1.7041,-1.7043,-1.7044,0,-1.6806,-1.6827,-1.6901,-1.691,-1.6922,-1.6956,-1.6979,-1.7006,-1.702,-1.7017,-1.7034,-1.7016,-1.7059,-1.7014,-1.7073,-1.7035,-1.7051,-1.7054,-1.7057,-1.7059,-1.701,-1.7087,-1.7217,-1.723,-1.7063,-1.7062,-1.706,0,-1.6891,-1.6938,-1.6988,-1.6997,-1.7009,-1.7033,-1.7039,-1.705,-1.7068,-1.7089,-1.71,-1.7126,-1.7141,-1.7162,-1.7152,-1.7121,-1.7213,-1.7168,-1.7212,-1.7212,-1.7232,-1.7231,-1.7366,-1.7243,-1.7243,-1.7243,-1.7242,0,-1.6993,-1.704,-1.7026,-1.7057,-1.7108,-1.7092,-1.7143,-1.7146,-1.7156,-1.7188,-1.7163,-1.7193,-1.7178,-1.7207,-1.72,-1.725,-1.7257,-1.7256,-1.7253,-1.7258,-1.7258,-1.7268,-1.7261,-1.7246,-1.7245,-1.7245,-1.7244,0,-1.7096,-1.7089,-1.7142,-1.7148,-1.7151,-1.7189,-1.7195,-1.7224,-1.7221,-1.7261,-1.7269,-1.7266,-1.7299,-1.7291,-1.7327,-1.7322,-1.7385,-1.7375,-1.738,-1.7378,-1.7422,-1.7418,-1.7568,-1.7587,-1.7452,-1.7454,-1.7455,0,-1.7162,-1.7197,-1.7207,-1.7226,-1.7234,-1.7265,-1.7282,-1.7268,-1.7288,-1.7307,-1.7334,-1.7365,-1.7388,-1.7443,-1.7444,-1.7472,-1.7462,-1.7513,-1.7466,-1.747,-1.7463,-1.7461,-1.7464,-1.7522,-1.7524,-1.7525,-1.7526,0,-1.7279,-1.7274,-1.73,-1.7325,-1.7346,-1.7365,-1.7382,-1.7399,-1.7387,-1.741,-1.7443,-1.7462,-1.7499,-1.753,-1.7556,-1.7563,-1.7543,-1.7541,-1.7552,-1.7557,-1.7559,-1.7558,-1.7405,-1.7537,-1.7536,-1.7535,-1.7534,-1.7534,-1.7365,-1.7395,-1.7407,-1.7437,-1.7448,-1.7464,-1.7492,-1.7493,-1.752,-1.7549,-1.7539,-1.7578,-1.7592,-1.7624,-1.7634,-1.7664,-1.7645,-1.7662,-1.7667,-1.7671,-1.7676,-1.7554,-1.7669,-1.7669,-1.7669,-1.7668,-1.7668,0,-1.7481,-1.7487,-1.7515,-1.7539,-1.7563,-1.7541,-1.7559,-1.7581,-1.7614,-1.7629,-1.7653,-1.7692,-1.7722,-1.7725,-1.7754,-1.7778,-1.7769,-1.7786,-1.7784,-1.7786,-1.7692,-1.7679,-1.7792,-1.7792,-1.7792,-1.7792,-1.7792,-1.7792,-1.7544,-1.7593,-1.7589,-1.7644,-1.765,-1.7686,-1.7698,-1.7714,-1.7725,-1.7769,-1.7794,-1.7796,-1.7807,-1.7836,-1.7863,-1.7863,-1.7875,-1.7895,-1.7892,-1.7805,-1.7792,-1.778,-1.7768,-1.7898,-1.7898,-1.7983,-1.7984,-1.7985]},{"header":{"parameterUnit":"m.s-1","parameterCategory":1,"la1":30.2991,"la2":30.254,"lo1":-89.0895,"lo2":-89.0444,"dy":0.0017,"dx":0.0017,"nx":28,"ny":28,"refTime":"2024-03-11T03:00:00:Z","depth":0,"parameterNumber":3,"parameterNumberName":"V-component_of_WINDS"},"data":[0,0,0,0,0,0,0,0,0,0,0,0,0,0,0,0,0,0,0,0,0,0,0,0,0,0,0,0,0,0,0,0,0,0,0,0,0,0,0,0,0,0,0,0,0,0,0,0,0,0,0,0,0,0,0,0,0,0,2.186,2.186,0,2.1877,2.1877,2.1878,2.1861,2.186,2.186,2.1859,2.1876,2.1877,2.1878,0,0,0,0,0,0,0,0,0,0,0,0,0,2.181,2.1811,2.186,2.186,2.186,2.1877,2.1877,2.1878,2.1861,2.186,2.1859,2.1859,2.1876,2.1877,2.1878,0,0,0,0,0,0,0,0,0,0,0,0,0,2.183,2.1811,2.186,2.1854,2.1854,2.1877,2.1877,2.1878,2.1861,2.186,2.1859,2.1858,2.1875,2.1877,2.1878,2.1908,0,0,2.1883,2.1884,0,0,0,0,0,0,0,0,2.1829,2.1832,2.1855,2.1854,2.1854,2.1866,2.1866,2.1888,2.1861,2.1858,2.1859,2.1858,2.1873,2.1875,2.188,2.1909,2.191,2.1883,2.1884,2.1885,2.1885,0,0,0,0,0,0,0,2.1828,2.1831,2.1867,2.1855,2.1855,2.185,2.1852,2.187,2.1871,2.1859,2.1857,2.186,2.1873,2.1879,2.1881,2.191,2.1883,2.1885,2.1886,2.1886,2.1961,2.1962,0,0,0,0,0,0,2.1827,2.183,2.1866,2.1867,2.1839,2.1852,2.1854,2.1863,2.1871,2.1871,2.1861,2.1859,2.1877,2.1879,2.1881,2.1915,2.1885,2.1886,2.1887,2.196,2.1962,2.1963,0,0,0,0,0,0,2.1826,2.183,2.1865,2.1848,2.1852,2.1854,2.1864,2.1864,2.187,2.1872,2.1872,2.1867,2.1876,2.1879,2.1901,2.1915,2.1887,2.1889,2.1959,2.1961,2.1962,2.1984,0,0,0,0,0,0,2.1825,2.183,2.1842,2.1849,2.1853,2.1886,2.1865,2.1865,2.1873,2.1871,2.1878,2.1878,2.1875,2.1899,2.1903,2.1917,2.189,2.1958,2.196,2.1962,2.1982,2.1986,2.1989,0,0,0,0,0,2.1823,2.1848,2.1843,2.1847,2.1868,2.1886,2.1889,2.1886,2.1874,2.1885,2.1887,2.1878,2.1914,2.1901,2.1905,2.1921,2.1957,2.1959,2.1962,2.198,2.1985,2.1989,0,0,0,0,0,0,2.1843,2.1848,2.1843,2.1871,2.1878,2.1884,2.1898,2.1891,2.1902,2.19,2.1895,2.1896,2.1919,2.1922,2.1909,2.1949,2.1933,2.1937,2.1946,2.1951,2.1954,2.1953,2.1891,0,0,0,0,0,2.185,2.1865,2.1869,2.1893,2.1897,2.1897,2.1905,2.1901,2.1909,2.1912,2.1915,2.1922,2.1935,2.1943,2.1955,2.1983,2.1983,2.1995,2.1999,2.2002,2.2004,2.2017,2.2022,2.197,2.197,2.197,0,0,2.1866,2.1871,2.1881,2.1897,2.1902,2.1917,2.19,2.1916,2.1927,2.1914,2.1935,2.1937,2.1945,2.197,2.1981,2.1973,2.2019,2.2005,2.2007,2.2008,2.202,2.2025,2.203,2.1972,2.1972,2.1971,0,0,2.1901,2.1908,2.1927,2.1933,2.1941,2.1941,2.1945,2.1952,2.1953,2.1974,2.1964,2.1976,2.1999,2.2004,2.2009,2.2046,2.2038,2.205,2.207,2.2082,2.2086,2.209,2.2102,2.2106,2.2053,2.2053,2.2053,0,2.192,2.1942,2.1938,2.1955,2.1962,2.1951,2.197,2.1976,2.1988,2.1992,2.1984,2.201,2.2015,2.204,2.2048,2.2054,2.2058,2.2049,2.2086,2.209,2.2093,2.2104,2.2108,2.2054,2.2054,2.2054,2.2054,0,2.1963,2.1978,2.1993,2.2004,2.2013,2.2031,2.2029,2.2038,2.2034,2.2034,2.2055,2.206,2.2072,2.2078,2.2074,2.2102,2.2096,2.2087,2.2071,2.2099,2.2109,2.2114,2.2056,2.2056,2.2055,2.2055,0,0,2.2012,2.202,2.2025,2.2029,2.2037,2.2049,2.2066,2.2077,2.2084,2.2093,2.2106,2.2125,2.2116,2.2122,2.2119,2.213,2.2157,2.212,2.212,2.2125,2.2186,2.2192,2.2197,2.2152,2.2153,2.2154,2.2185,0,2.2046,2.2076,2.2072,2.21,2.2113,2.2103,2.2117,2.2123,2.2124,2.2135,2.2135,2.2148,2.2136,2.214,2.2151,2.2151,2.2169,2.2149,2.2163,2.2164,2.216,2.2202,2.2208,2.2238,2.2189,2.2189,2.219,0,2.2091,2.21,2.2129,2.2133,2.2139,2.2152,2.2161,2.2172,2.2178,2.2178,2.2185,2.2179,2.2195,2.2179,2.2201,2.2187,2.2193,2.2194,2.2195,2.2195,2.2178,2.2202,2.2247,2.2251,2.2196,2.2196,2.2195,0,2.2121,2.2141,2.216,2.2164,2.2171,2.218,2.2183,2.2188,2.2195,2.2203,2.2207,2.2217,2.2223,2.2231,2.2227,2.2217,2.2249,2.2233,2.2248,2.2248,2.2254,2.2253,2.2299,2.226,2.226,2.226,2.226,0,2.2159,2.2177,2.2174,2.2185,2.2204,2.22,2.2219,2.2221,2.2225,2.2237,2.2229,2.224,2.2236,2.2246,2.2244,2.2261,2.2264,2.2263,2.2262,2.2263,2.2262,2.2265,2.2262,2.2261,2.2261,2.226,2.226,0,2.2196,2.2195,2.2215,2.2219,2.222,2.2234,2.2237,2.2247,2.2247,2.2261,2.2265,2.2264,2.2276,2.2274,2.2287,2.2285,2.2306,2.2303,2.2303,2.2302,2.2316,2.2314,2.2364,2.237,2.2328,2.2329,2.2329,0,2.2219,2.2233,2.2238,2.2245,2.2248,2.226,2.2266,2.2262,2.2269,2.2277,2.2286,2.2297,2.2305,2.2324,2.2325,2.2334,2.2331,2.2347,2.2332,2.2332,2.2329,2.2328,2.2328,2.235,2.2351,2.2351,2.2351,0,2.2261,2.226,2.2269,2.2279,2.2287,2.2294,2.23,2.2307,2.2303,2.2311,2.2323,2.2329,2.2342,2.2352,2.2361,2.2363,2.2356,2.2356,2.236,2.236,2.2359,2.2358,2.231,2.2355,2.2354,2.2354,2.2354,2.2354,2.2291,2.2302,2.2306,2.2317,2.2321,2.2327,2.2337,2.2338,2.2347,2.2357,2.2354,2.2367,2.2372,2.2383,2.2386,2.2395,2.2389,2.2395,2.2396,2.2397,2.2398,2.2359,2.2397,2.2397,2.2397,2.2397,2.2397,0,2.2331,2.2333,2.2343,2.2352,2.236,2.2353,2.236,2.2367,2.2378,2.2383,2.2391,2.2404,2.2413,2.2415,2.2424,2.2431,2.2428,2.2433,2.2432,2.2432,2.2404,2.2399,2.2435,2.2435,2.2435,2.2435,2.2435,2.2435,2.2352,2.2369,2.2368,2.2387,2.2389,2.2401,2.2405,2.241,2.2414,2.2428,2.2436,2.2437,2.244,2.2449,2.2457,2.2457,2.246,2.2467,2.2465,2.2438,2.2434,2.2431,2.2426,2.2468,2.2468,2.2493,2.2493,2.2493]}]]